Temp
53 52 52 52 52 53 54 54 56 56 55 55 54 53 52 51 48 47 44 45 44 43
52 51 51 51 52 53 54 55 54 54 52 51 50 50 49 47 45 45 43 41 42 41
52 52 52 52 52 53 53 53 51 51 50 49 49 47 46 44 45 44 42 42 43 42
52 52 52 51 52 52 52 49 48 47 46 46 45 45 44 43 44 43 42 42 42 41
51 51 50 51 52 50 47 46 45 46 45 44 44 43 42 42 41 42 41 40 41 41
50 50 50 50 47 46 45 43 43 43 43 42 42 41 41 42 41 42 41 41 40 39
50 49 47 45 45 44 43 42 42 42 42 43 43 43 43 42 40 40 39 40 40 40
47 46 44 43 43 42 42 42 41 41 42 43 43 43 41 40 38 38 37 37 38 38
45 44 42 41 41 41 40 41 41 41 41 41 43 44 43 40 37 37 36 36 37 39
44 41 41 41 40 40 39 40 40 40 40 40 41 43 42 40 37 36 34 35 35 37
42 41 41 40 40 40 40 40 39 39 39 39 41 42 41 40 36 34 34 34 35 35
41 41 40 39 39 40 39 38 38 39 39 39 39 42 41 37 34 33 33 35 35 35
41 41 40 39 39 39 39 38 38 38 39 41 39 42 40 37 35 32 33 34 36 39
40 39 40 39 38 38 37 36 36 35 38 39 39 39 41 39 35 34 33 32 32 33
MSLP
1011.42 1011.87 1011.77 1012.32 1012.89 1013.48 1014.03 1014.30 1015.00 1015.60 1016.03 1016.54 1017.16 1017.81 1018.43 1019.15 1020.13 1020.80 1021.20 1022.08 1022.55 1023.13
1011.32 1011.85 1012.14 1012.42 1012.87 1013.40 1013.83 1014.46 1015.02 1015.20 1015.93 1016.62 1017.43 1017.81 1018.45 1019.14 1020.21 1020.92 1021.49 1022.26 1023.03 1023.63
1010.94 1011.47 1011.90 1012.37 1012.75 1013.24 1013.66 1014.26 1014.82 1015.62 1016.37 1016.73 1017.31 1018.09 1018.77 1019.71 1020.52 1021.16 1021.97 1022.42 1023.17 1023.58
1010.67 1011.16 1011.61 1012.01 1012.50 1013.00 1013.54 1014.26 1014.81 1015.71 1016.39 1016.99 1017.65 1018.86 1019.36 1020.03 1020.70 1021.39 1022.54 1023.25 1023.48 1024.16
1010.47 1010.96 1011.32 1011.85 1012.28 1012.85 1013.73 1014.36 1015.19 1016.03 1016.87 1017.60 1018.37 1019.33 1020.11 1020.75 1021.46 1022.01 1023.04 1023.66 1024.03 1024.47
1010.43 1010.84 1011.34 1011.74 1012.41 1013.23 1014.12 1014.98 1015.55 1016.76 1017.71 1018.38 1019.02 1019.60 1020.37 1021.02 1022.05 1022.88 1023.64 1023.90 1024.33 1024.86
1010.37 1010.83 1011.44 1012.11 1012.73 1013.35 1014.06 1015.42 1016.79 1017.61 1018.36 1019.08 1019.65 1020.23 1020.92 1021.71 1022.61 1023.43 1023.97 1024.23 1025.02 1025.41
1010.59 1011.37 1012.11 1012.75 1013.31 1013.93 1014.85 1016.11 1017.18 1018.02 1019.12 1019.57 1020.00 1020.83 1021.65 1022.42 1023.03 1023.74 1024.64 1025.25 1025.49 1025.75
1011.15 1011.69 1012.49 1013.27 1013.95 1014.90 1016.05 1017.06 1017.85 1018.65 1019.19 1020.30 1020.90 1021.43 1022.08 1022.58 1023.70 1024.60 1024.89 1025.61 1026.17 1026.09
1011.43 1012.13 1013.07 1013.81 1014.77 1015.72 1016.69 1017.37 1018.29 1019.17 1019.83 1020.67 1021.20 1021.84 1022.59 1023.17 1023.97 1024.71 1025.43 1026.26 1026.68 1026.69
1011.77 1012.57 1013.31 1014.64 1015.18 1016.12 1016.93 1017.65 1018.58 1019.58 1020.45 1021.06 1021.60 1022.05 1022.72 1023.69 1024.54 1025.06 1025.89 1026.67 1026.98 1027.04
1012.29 1013.05 1013.70 1014.93 1015.78 1016.66 1017.51 1018.45 1019.24 1019.91 1020.74 1021.14 1021.95 1022.31 1023.20 1024.08 1025.03 1025.88 1026.57 1026.83 1027.17 1027.52
1012.95 1013.55 1014.26 1015.17 1016.21 1017.20 1018.10 1018.92 1019.79 1020.61 1021.15 1021.65 1022.23 1022.74 1023.69 1024.64 1025.49 1026.16 1026.59 1027.08 1027.44 1027.59
1013.97 1014.43 1014.99 1015.82 1016.88 1017.57 1018.73 1019.58 1020.42 1021.17 1022.01 1022.57 1022.93 1023.62 1024.22 1024.87 1025.52 1026.17 1026.92 1027.44 1027.95 1028.01
Wind_Speed
10 7 9 12 11 10 10 10 14 12 9 9 9 8 8 7 5 6 5 6 5 3
8 8 9 11 10 9 8 7 8 8 6 7 7 9 8 7 7 8 6 7 7 4
10 10 9 10 12 11 10 10 10 10 9 8 8 8 10 9 8 10 6 6 9 6
8 9 10 10 10 11 9 11 11 10 10 10 11 8 9 10 11 12 9 5 8 7
8 9 10 10 10 11 12 11 11 10 10 10 10 10 11 11 9 11 10 8 9 7
8 9 10 8 11 13 13 12 13 11 10 10 10 11 11 12 11 10 9 8 8 8
9 9 10 11 12 14 15 14 13 11 11 11 11 12 13 13 12 10 9 9 8 7
9 11 11 12 13 14 13 13 13 15 12 12 12 9 11 11 11 11 10 8 8 7
12 12 12 12 15 15 14 14 14 13 14 11 8 20 19 14 11 10 10 9 6 6
12 14 13 13 14 16 15 14 14 13 13 12 12 21 20 19 10 9 8 7 6 6
11 13 15 12 14 13 13 15 14 13 13 11 12 20 19 18 10 9 8 5 6 7
12 13 14 13 14 13 13 12 12 12 12 13 11 19 19 14 9 8 7 6 6 5
10 12 13 15 14 12 12 13 11 12 11 17 11 18 18 13 7 8 6 6 6 10
10 11 12 14 13 14 13 13 13 13 10 10 11 14 19 17 7 7 6 5 4 3
Wind_Direction
181 188 180 179 177 181 189 184 175 173 170 162 158 150 150 140 132 127 117 112 94 104
173 179 183 180 185 190 178 190 181 148 136 135 138 134 130 124 116 107 105 99 94 92
179 183 183 178 182 184 169 161 143 139 140 122 116 119 116 108 108 111 101 110 115 106
181 182 176 178 181 175 151 141 132 125 118 113 107 103 110 114 123 115 116 99 102 102
162 168 170 176 173 140 129 122 111 113 106 109 114 118 118 115 108 113 112 113 108 97
166 165 164 148 123 126 118 114 104 109 118 119 117 112 108 107 104 104 103 98 95 91
154 142 136 133 128 119 116 114 116 116 115 116 114 111 112 110 106 102 94 87 96 102
122 118 116 119 113 109 108 112 117 114 112 108 109 108 109 110 106 104 100 96 99 98
130 122 113 110 110 108 110 118 119 117 117 113 111 122 121 113 112 113 111 104 102 103
132 126 117 117 119 123 128 123 120 114 112 119 121 129 127 119 114 112 112 116 114 107
135 131 122 133 121 122 127 128 129 123 123 127 126 127 123 115 109 104 104 121 125 112
136 133 133 130 129 128 126 121 121 121 126 119 126 127 127 116 110 115 119 100 100 111
122 126 129 129 126 125 120 117 118 113 115 122 129 137 138 131 124 119 115 108 124 123
106 113 120 121 122 122 117 114 113 109 118 125 132 149 151 139 130 132 130 125 120 116